BREEZE-M DEB [TANK]

Last updated on Sun Jul 20 2025 00:02:05 GMT+0000 (Coordinated Universal Time)

1 64469U 25131C 25200.23392769 .00005636 00000+0 14000-2 0 9997 2 64469 61.0916 268.9335 6900679 179.0200 184.0277 2.77114726 754
UTC large
Height (km)
Speed (km/s)
/
Latitude / Longitude
Inclination (degrees)
Orbital Period (minutes)
Azimuth
Elevation
Range (km)
Doppler Factor

Next 0 passes for location: London (51.5072 / 0.1276)

Sorry there are no passes over London.